Hourly Weather Ruda

Today, 2 August, Monday

Time Temperature Precipitation Wind Pressure Humidity
00:00 +21°C° 0 mm 3 mps 729 mmHg 77%
01:00 +21°C° 0 mm 3 mps 729 mmHg 78%
02:00 +20°C° 0 mm 3 mps 728 mmHg 84%
03:00 +19°C° 0 mm 3 mps 729 mmHg 83%
04:00 +19°C° 0 mm 3 mps 729 mmHg 82%
05:00 +19°C° 0 mm 3 mps 729 mmHg 81%
06:00 +19°C° 0 mm 4 mps 730 mmHg 82%
07:00 +19°C° 0 mm 5 mps 730 mmHg 83%
08:00 +19°C° 0 mm 6 mps 731 mmHg 83%
09:00 +19°C° 0 mm 6 mps 731 mmHg 82%
10:00 +19°C° 0 mm 6 mps 732 mmHg 81%
11:00 +19°C° 0 mm 6 mps 733 mmHg 80%
12:00 +19°C° 0 mm 6 mps 733 mmHg 79%
13:00 +19°C° 0 mm 6 mps 733 mmHg 77%
14:00 +19°C° 0 mm 5 mps 734 mmHg 76%
15:00 +19°C° 0 mm 5 mps 734 mmHg 76%
16:00 +18°C° 0 mm 4 mps 734 mmHg 76%
17:00 +18°C° 0 mm 4 mps 734 mmHg 75%
18:00 +17°C° 0 mm 3 mps 734 mmHg 80%
19:00 +16°C° 0 mm 2 mps 734 mmHg 84%
20:00 +16°C° 0 mm 2 mps 734 mmHg 88%
21:00 +15°C° 0 mm 2 mps 735 mmHg 88%
22:00 +15°C° 0 mm 1 mps 735 mmHg 89%
23:00 +14°C° 0 mm 1 mps 735 mmHg 89%

Tomorrow, 3 August, Tuesday

Time Temperature Precipitation Wind Pressure Humidity
00:00 +14°C° 0 mm 1 mps 735 mmHg 90%
01:00 +14°C° 0 mm 1 mps 736 mmHg 90%
02:00 +14°C° 0 mm 1 mps 736 mmHg 90%
03:00 +13°C° 0 mm 1 mps 736 mmHg 90%
04:00 +13°C° 0 mm 1 mps 736 mmHg 90%
05:00 +13°C° 0 mm 1 mps 736 mmHg 90%
06:00 +15°C° 0 mm 1 mps 736 mmHg 85%
07:00 +16°C° 0 mm 1 mps 737 mmHg 80%
08:00 +19°C° 0 mm 1 mps 737 mmHg 75%
09:00 +20°C° 0.1 mm 1 mps 737 mmHg 70%
10:00 +21°C° 0.1 mm 2 mps 737 mmHg 65%
11:00 +23°C° 0.1 mm 2 mps 737 mmHg 60%
12:00 +24°C° 0.1 mm 2 mps 737 mmHg 57%
13:00 +24°C° 0.1 mm 2 mps 737 mmHg 55%
14:00 +25°C° 0.1 mm 2 mps 737 mmHg 52%
15:00 +25°C° 0 mm 2 mps 737 mmHg 52%
16:00 +25°C° 0 mm 2 mps 736 mmHg 52%
17:00 +25°C° 0 mm 1 mps 736 mmHg 52%
18:00 +23°C° 0 mm 1 mps 736 mmHg 59%
19:00 +20°C° 0 mm 2 mps 736 mmHg 65%
20:00 +19°C° 0 mm 2 mps 736 mmHg 71%
21:00 +18°C° 0.4 mm 2 mps 737 mmHg 77%
22:00 +17°C° 0.4 mm 2 mps 737 mmHg 82%
23:00 +16°C° 0.4 mm 2 mps 737 mmHg 87%

Day after tomorrow, 4 August, Wednesday

Time Temperature Precipitation Wind Pressure Humidity
00:00 +15°C° 0.2 mm 2 mps 737 mmHg 88%
01:00 +15°C° 0.2 mm 2 mps 737 mmHg 88%
02:00 +15°C° 0.2 mm 2 mps 737 mmHg 88%
03:00 +15°C° 0 mm 2 mps 736 mmHg 89%
04:00 +15°C° 0 mm 2 mps 736 mmHg 90%
05:00 +15°C° 0 mm 2 mps 736 mmHg 91%
06:00 +16°C° 0 mm 2 mps 736 mmHg 89%
07:00 +17°C° 0 mm 3 mps 736 mmHg 86%
08:00 +18°C° 0 mm 3 mps 736 mmHg 83%
09:00 +20°C° 0 mm 3 mps 736 mmHg 78%
10:00 +21°C° 0 mm 3 mps 736 mmHg 73%
11:00 +24°C° 0 mm 3 mps 736 mmHg 67%
12:00 +24°C° 0 mm 3 mps 736 mmHg 64%
13:00 +25°C° 0 mm 3 mps 736 mmHg 61%
14:00 +26°C° 0 mm 3 mps 735 mmHg 58%
15:00 +25°C° 0 mm 3 mps 735 mmHg 60%
16:00 +25°C° 0 mm 3 mps 735 mmHg 63%
17:00 +25°C° 0 mm 4 mps 735 mmHg 65%
18:00 +22°C° 0 mm 3 mps 735 mmHg 70%
19:00 +21°C° 0 mm 3 mps 735 mmHg 75%
20:00 +19°C° 0 mm 3 mps 734 mmHg 80%
21:00 +20°C° 0 mm 3 mps 734 mmHg 78%
22:00 +20°C° 0 mm 3 mps 734 mmHg 75%
23:00 +20°C° 0 mm 3 mps 734 mmHg 72%

5 August, Thursday

Time Temperature Precipitation Wind Pressure Humidity
00:00 +20°C° 0 mm 2 mps 734 mmHg 74%
01:00 +19°C° 0 mm 2 mps 734 mmHg 77%
02:00 +19°C° 0 mm 2 mps 733 mmHg 79%
03:00 +19°C° 0 mm 2 mps 733 mmHg 79%
04:00 +19°C° 0 mm 2 mps 733 mmHg 80%
05:00 +19°C° 0 mm 2 mps 732 mmHg 80%
06:00 +20°C° 0 mm 2 mps 732 mmHg 77%
07:00 +21°C° 0 mm 2 mps 733 mmHg 73%
08:00 +23°C° 0 mm 2 mps 733 mmHg 70%
09:00 +24°C° 0 mm 1 mps 733 mmHg 64%
10:00 +26°C° 0 mm 1 mps 732 mmHg 58%
11:00 +28°C° 0 mm 1 mps 732 mmHg 53%
12:00 +29°C° 0 mm 1 mps 732 mmHg 51%
13:00 +29°C° 0 mm 1 mps 732 mmHg 49%
14:00 +30°C° 0 mm 1 mps 732 mmHg 47%
15:00 +30°C° 0 mm 2 mps 732 mmHg 49%
16:00 +30°C° 0 mm 2 mps 731 mmHg 52%
17:00 +30°C° 0 mm 3 mps 730 mmHg 55%
18:00 +29°C° 0 mm 3 mps 729 mmHg 58%
19:00 +27°C° 0 mm 4 mps 728 mmHg 62%
20:00 +25°C° 0 mm 4 mps 727 mmHg 66%
21:00 +23°C° 0.8 mm 4 mps 728 mmHg 73%
22:00 +21°C° 0.8 mm 4 mps 728 mmHg 80%
23:00 +20°C° 0.8 mm 4 mps 729 mmHg 87%

6 August, Friday

Time Temperature Precipitation Wind Pressure Humidity
00:00 +19°C° 0 mm 3 mps 728 mmHg 88%
01:00 +19°C° 0 mm 3 mps 728 mmHg 88%
02:00 +18°C° 0 mm 2 mps 728 mmHg 89%
03:00 +18°C° 0 mm 2 mps 728 mmHg 89%
04:00 +18°C° 0 mm 2 mps 728 mmHg 89%
05:00 +17°C° 0 mm 2 mps 728 mmHg 90%
06:00 +18°C° 0 mm 3 mps 728 mmHg 86%
07:00 +20°C° 0 mm 4 mps 729 mmHg 82%
08:00 +21°C° 0 mm 5 mps 729 mmHg 78%
09:00 +21°C° 0 mm 5 mps 730 mmHg 74%
10:00 +22°C° 0 mm 5 mps 730 mmHg 69%
11:00 +23°C° 0 mm 5 mps 730 mmHg 64%
12:00 +22°C° 0.1 mm 5 mps 730 mmHg 65%
13:00 +22°C° 0.1 mm 5 mps 731 mmHg 66%
14:00 +22°C° 0.1 mm 5 mps 731 mmHg 67%
15:00 +22°C° 0 mm 4 mps 731 mmHg 67%
16:00 +21°C° 0 mm 4 mps 731 mmHg 68%
17:00 +21°C° 0 mm 4 mps 731 mmHg 69%
18:00 +20°C° 0 mm 3 mps 731 mmHg 75%
19:00 +18°C° 0 mm 2 mps 731 mmHg 81%
20:00 +18°C° 0 mm 1 mps 732 mmHg 87%
21:00 +16°C° 0 mm 1 mps 732 mmHg 88%
22:00 +16°C° 0 mm 1 mps 732 mmHg 89%
23:00 +15°C° 0 mm 1 mps 733 mmHg 90%

7 August, Saturday

Time Temperature Precipitation Wind Pressure Humidity
00:00 +15°C° 0 mm 1 mps 733 mmHg 91%
01:00 +15°C° 0 mm 1 mps 733 mmHg 91%
02:00 +14°C° 0 mm 1 mps 733 mmHg 92%
03:00 +14°C° 0 mm 1 mps 733 mmHg 92%
04:00 +14°C° 0 mm 1 mps 733 mmHg 92%
05:00 +14°C° 0 mm 1 mps 733 mmHg 92%
06:00 +15°C° 0 mm 1 mps 734 mmHg 87%
07:00 +18°C° 0 mm 1 mps 734 mmHg 82%
08:00 +20°C° 0 mm 1 mps 735 mmHg 77%
09:00 +21°C° 0 mm 1 mps 735 mmHg 71%
10:00 +23°C° 0 mm 2 mps 735 mmHg 65%
11:00 +24°C° 0 mm 2 mps 735 mmHg 59%
12:00 +25°C° 0 mm 2 mps 735 mmHg 56%
13:00 +25°C° 0 mm 2 mps 735 mmHg 53%
14:00 +26°C° 0 mm 2 mps 735 mmHg 50%
15:00 +26°C° 0 mm 1 mps 735 mmHg 50%
16:00 +26°C° 0 mm 1 mps 735 mmHg 50%
17:00 +26°C° 0 mm 1 mps 735 mmHg 50%
18:00 +25°C° 0 mm 1 mps 735 mmHg 56%
19:00 +23°C° 0 mm 1 mps 736 mmHg 63%
20:00 +21°C° 0 mm 1 mps 736 mmHg 69%
21:00 +20°C° 0 mm 1 mps 736 mmHg 71%
22:00 +20°C° 0 mm 1 mps 736 mmHg 72%
23:00 +19°C° 0 mm 1 mps 736 mmHg 74%
Show more

We Need Your Consent

Meteoprog and our Service Providers may store and access personal data such as cookies, device identifiers or other similar technologies on your device and process such data to personalise content and ads, as well as provide social media features and to analyse the traffic.

  • Store and/or access information on your device

    Cookies, device identifiers or other information can be stored or accessed on your device for the purposes indicated above.

  • Personalised ads and content, ad and content measurement, audience insights, and products development

    Ads and content can be personalised based on a profile. More data can be added to better personalise ads and content. Ad and content performance can be measured. Insights about the audience who saw the ads and content can be derived. Such data can be used to develop or improve user’s experience, systems and software.

By clicking ‘I Agree’ you will allow the use of indicated cookies, device identifiers, web beacons or other similar technologies. Your settings can be changed in the browser on your device.

For certain purposes, legitimate interests may be relied on, rather than consent. You can read more about this in our Privacy and Cookie Policy.